Mount Shasta, CA

2:26 AM PDT on April 25, 2018 (GMT -0700)
Mount Shasta

Weather History for KMHS - February, 2013

Change the Weather History Date:

Saturday, February 23, 2013

  Actual Average Record
Temperature  
Mean Temperature 35 °F 39 °F  
Max Temperature 41 °F 50 °F 70 °F (1995)
Min Temperature 29 °F 29 °F 15 °F (1920)
Degree Days  
Heating Degree Days 30 26  
Month to date heating degree days 599 623  
Since 1 July heating degree days 3598 3849  
Cooling Degree Days 0 0  
Month to date cooling degree days 0 0  
Year to date cooling degree days 0 0  
Moisture  
Dew Point 21 °F    
Average Humidity 59    
Maximum Humidity 69    
Minimum Humidity 44    
Precipitation  
Precipitation T in 0.27 in 3.09 in (1957)
Month to date precipitation 1.02 5.87  
Year to date precipitation 1.85 12.93  
Sea Level Pressure  
Sea Level Pressure 30.29 in    
Wind  
Wind Speed 8 mph (NNW)    
Max Wind Speed 16 mph    
Max Gust Speed 36 mph    
Visibility 10 miles    
Events      
T = Trace of Precipitation, MM = Missing Value Source: NWS Daily Summary

Daily Weather History Graph

Daily Weather History Graph

Search for Another Location

Airport or City:

Astronomy

Feb. 23, 2013 Rise Set
Actual Time 6:52 AM PST 5:53 PM PST
Civil Twilight 6:24 AM PST 6:21 PM PST
Nautical Twilight 5:52 AM PST 6:53 PM PST
Astronomical Twilight 5:20 AM PST 7:25 PM PST
Moon 4:08 PM PST (2/23) 5:18 AM PST (2/23)
Length of Visible Light 11h 56m
Length of Day
11h 01m
Waxing Gibbous, 96% of the Moon is Illuminated
Feb 23
Waxing Gibbous
Feb 25
Full
Mar 4
Last Quarter
Mar 11
New
Mar 19
First Quarter

Hourly Weather History & Observations

Time (PST) Temp. Windchill Dew Point Humidity Pressure Visibility Wind Dir Wind Speed Gust Speed Precip Events Conditions
12:56 AM 37.0 °F 31.0 °F 27.0 °F 67% 30.12 in 10.0 mi North 8.1 mph 20.7 mph N/A   Partly Cloudy
1:56 AM 35.1 °F 28.6 °F 24.1 °F 64% 30.14 in 10.0 mi North 8.1 mph - N/A   Mostly Cloudy
2:56 AM 34.0 °F 28.8 °F 21.9 °F 61% 30.15 in 10.0 mi Variable 5.8 mph - N/A   Mostly Cloudy
3:56 AM 33.1 °F 27.7 °F 19.9 °F 59% 30.16 in 10.0 mi North 5.8 mph 18.4 mph N/A   Partly Cloudy
4:56 AM 33.1 °F 26.1 °F 21.0 °F 61% 30.19 in 10.0 mi North 8.1 mph 17.3 mph 0.00 in   Overcast
5:56 AM 32.0 °F 25.6 °F 21.0 °F 64% 30.22 in 9.0 mi North 6.9 mph - 0.00 in   Overcast
6:56 AM 30.9 °F 24.3 °F 21.9 °F 69% 30.24 in 10.0 mi Variable 6.9 mph - 0.00 in   Mostly Cloudy
7:56 AM 32.0 °F 25.6 °F 19.9 °F 61% 30.27 in 10.0 mi Variable 6.9 mph 18.4 mph N/A   Overcast
8:56 AM 34.0 °F 27.2 °F 21.0 °F 59% 30.29 in 10.0 mi NNW 8.1 mph 20.7 mph N/A   Partly Cloudy
9:56 AM 36.0 °F 30.3 °F 21.0 °F 55% 30.30 in 10.0 mi Variable 6.9 mph 19.6 mph N/A   Mostly Cloudy
10:56 AM 36.0 °F 26.7 °F 19.9 °F 52% 30.34 in 10.0 mi NNE 15.0 mph 29.9 mph 0.00 in   Overcast
11:56 AM 37.0 °F 28.9 °F 21.0 °F 52% 30.32 in 10.0 mi NNW 12.7 mph 26.5 mph N/A   Overcast
12:56 PM 39.0 °F 33.4 °F 19.9 °F 46% 30.31 in 10.0 mi North 8.1 mph 24.2 mph N/A   Scattered Clouds
1:56 PM 37.9 °F 29.6 °F 18.0 °F 45% 30.30 in 10.0 mi NW 13.8 mph 24.2 mph N/A   Scattered Clouds
2:56 PM 39.9 °F 33.4 °F 21.0 °F 47% 30.30 in 10.0 mi North 10.4 mph 19.6 mph N/A   Mostly Cloudy
3:56 PM 39.0 °F 32.3 °F 19.9 °F 46% 30.30 in 10.0 mi North 10.4 mph 19.6 mph N/A   Mostly Cloudy
4:56 PM 37.0 °F 31.6 °F 18.0 °F 46% 30.32 in 10.0 mi Variable 6.9 mph 18.4 mph N/A   Clear
5:56 PM 36.0 °F 29.0 °F 18.0 °F 48% 30.34 in 10.0 mi NNW 9.2 mph 17.3 mph N/A   Partly Cloudy
6:56 PM 35.1 °F 28.6 °F 19.0 °F 52% 30.36 in 10.0 mi NNW 8.1 mph - N/A   Clear
7:56 PM 34.0 °F 28.8 °F 19.9 °F 56% 30.37 in 10.0 mi NNW 5.8 mph - N/A   Clear
8:56 PM 32.0 °F 23.0 °F 21.0 °F 64% 30.38 in 10.0 mi NW 11.5 mph 21.9 mph N/A   Clear
9:56 PM 30.9 °F 26.2 °F 21.0 °F 67% 30.39 in 10.0 mi Variable 4.6 mph - N/A   Partly Cloudy
10:56 PM 30.0 °F 25.2 °F 21.9 °F 72% 30.41 in 10.0 mi Variable 4.6 mph - N/A   Scattered Clouds
11:18 PM 28.4 °F - 21.2 °F 74% 30.29 in 10.0 mi Calm Calm - N/A   Mostly Cloudy
11:46 PM 30.2 °F 25.4 °F 21.2 °F 69% 30.29 in 10.0 mi Variable 4.6 mph - N/A   Mostly Cloudy
11:56 PM 28.9 °F - 21.9 °F 75% 30.41 in 10.0 mi Calm Calm - N/A   Mostly Cloudy